{"data":{"norad_id":62063,"epoch":"2026-05-25T01:06:42.599232Z","epoch_age_seconds":77815,"freshness":"FRESH","line1":"1 62063U 24217G   26145.04632638  .00135424  00000+0  11018-2 0  9994","line2":"2 62063  53.1571  55.0318 0000855  72.4875 287.6236 15.69770123 87161","mean_motion":15.69770123,"eccentricity":8.55e-5,"inclination_deg":53.1571,"raan_deg":55.0318,"arg_perigee_deg":72.4875,"mean_anomaly_deg":287.6236,"bstar":0.0011018,"rev_number":8716,"period_min":91.733176654427,"perigee_km":358.97863425803,"apogee_km":360.13077953991,"semimajor_km":6737.691706899,"source":"CELESTRAK","updated_at":"2026-05-25T13:38:19.530805Z"}}